TimeCDT,TemperatureF,Dew PointF,Humidity,Sea Level PressureIn,VisibilityMPH,Wind Direction,Wind SpeedMPH,Gust SpeedMPH,PrecipitationIn,Events,Conditions,WindDirDegrees,DateUTC
12:15 AM,50.9,42.3,72,29.95,10.0,West,3.5,-,N/A,,Clear,270,2013-10-12 05:15:00
12:35 AM,51.3,42.8,73,29.96,10.0,Calm,Calm,-,N/A,,Scattered Clouds,0,2013-10-12 05:35:00
12:55 AM,50.9,42.8,74,29.96,10.0,Calm,Calm,-,N/A,,Clear,0,2013-10-12 05:55:00
1:15 AM,50.0,42.3,75,29.96,10.0,Calm,Calm,-,N/A,,Clear,0,2013-10-12 06:15:00
1:35 AM,49.5,42.3,76,29.98,10.0,Calm,Calm,-,N/A,,Clear,0,2013-10-12 06:35:00
1:55 AM,49.3,41.9,76,29.99,10.0,Calm,Calm,-,N/A,,Clear,0,2013-10-12 06:55:00
2:15 AM,49.1,42.3,77,30.00,10.0,West,3.5,-,N/A,,Clear,280,2013-10-12 07:15:00
2:35 AM,48.6,42.1,78,30.01,10.0,West,3.5,-,N/A,,Clear,260,2013-10-12 07:35:00
2:55 AM,48.0,42.1,80,30.02,10.0,Calm,Calm,-,N/A,,Clear,0,2013-10-12 07:55:00
3:15 AM,48.4,42.3,79,30.02,10.0,Calm,Calm,-,N/A,,Scattered Clouds,0,2013-10-12 08:15:00
3:35 AM,48.4,42.1,79,30.02,10.0,West,3.5,-,N/A,,Scattered Clouds,280,2013-10-12 08:35:00
3:55 AM,49.1,41.9,76,30.03,10.0,Calm,Calm,-,N/A,,Clear,0,2013-10-12 08:55:00
4:15 AM,47.3,41.5,80,30.03,10.0,NW,5.8,-,N/A,,Clear,320,2013-10-12 09:15:00
4:35 AM,49.1,41.5,75,30.03,10.0,NW,5.8,-,N/A,,Clear,320,2013-10-12 09:35:00
4:55 AM,49.1,41.4,75,30.05,10.0,NNW,8.1,-,N/A,,Clear,330,2013-10-12 09:55:00
5:15 AM,48.4,41.0,76,30.07,10.0,NNW,6.9,-,N/A,,Clear,330,2013-10-12 10:15:00
5:35 AM,47.7,40.5,76,30.08,10.0,Calm,Calm,-,N/A,,Clear,0,2013-10-12 10:35:00
5:55 AM,46.4,40.1,79,30.09,10.0,WNW,3.5,-,N/A,,Clear,300,2013-10-12 10:55:00
6:35 AM,45.3,39.4,80,30.09,10.0,WNW,3.5,-,N/A,,Clear,290,2013-10-12 11:35:00
6:55 AM,44.4,39.0,81,30.10,10.0,Calm,Calm,-,N/A,,Clear,0,2013-10-12 11:55:00
7:15 AM,44.6,39.2,81,30.12,10.0,WNW,4.6,-,N/A,,Clear,290,2013-10-12 12:15:00
7:35 AM,44.2,38.8,81,30.12,10.0,West,3.5,-,N/A,,Clear,280,2013-10-12 12:35:00
7:55 AM,44.4,38.8,81,30.13,10.0,Calm,Calm,-,N/A,,Clear,0,2013-10-12 12:55:00
8:15 AM,45.9,40.1,80,30.14,10.0,NW,3.5,-,N/A,,Clear,310,2013-10-12 13:15:00
8:35 AM,47.8,41.2,78,30.16,10.0,NW,4.6,-,N/A,,Clear,320,2013-10-12 13:35:00
8:55 AM,50.0,40.8,71,30.17,10.0,NW,6.9,-,N/A,,Scattered Clouds,320,2013-10-12 13:55:00
9:15 AM,50.9,41.0,69,30.17,10.0,NNW,5.8,-,N/A,,Scattered Clouds,330,2013-10-12 14:15:00
9:35 AM,52.5,39.4,61,30.18,10.0,NNW,6.9,-,N/A,,Scattered Clouds,330,2013-10-12 14:35:00
9:55 AM,52.7,39.4,61,30.19,10.0,NNW,6.9,-,N/A,,Mostly Cloudy,330,2013-10-12 14:55:00
10:15 AM,53.6,39.2,58,30.20,10.0,NNW,4.6,-,N/A,,Mostly Cloudy,330,2013-10-12 15:15:00
10:35 AM,55.0,37.8,52,30.20,10.0,NNW,5.8,-,N/A,,Scattered Clouds,340,2013-10-12 15:35:00
10:55 AM,55.6,36.7,49,30.20,10.0,North,10.4,-,N/A,,Scattered Clouds,360,2013-10-12 15:55:00
11:15 AM,57.2,34.9,43,30.21,10.0,NNW,6.9,-,N/A,,Mostly Cloudy,340,2013-10-12 16:15:00
11:35 AM,58.1,33.6,40,30.21,10.0,North,5.8,-,N/A,,Overcast,350,2013-10-12 16:35:00
11:55 AM,59.0,32.5,37,30.21,10.0,NNW,5.8,-,N/A,,Mostly Cloudy,330,2013-10-12 16:55:00
12:15 PM,59.9,32.2,35,30.21,10.0,Calm,Calm,-,N/A,,Scattered Clouds,0,2013-10-12 17:15:00
12:35 PM,62.1,32.2,33,30.21,10.0,North,5.8,-,N/A,,Clear,360,2013-10-12 17:35:00
12:55 PM,62.6,28.9,28,30.21,10.0,Calm,Calm,-,N/A,,Clear,0,2013-10-12 17:55:00
1:15 PM,63.9,27.9,26,30.20,10.0,North,6.9,-,N/A,,Clear,10,2013-10-12 18:15:00
1:35 PM,64.9,27.3,24,30.19,10.0,North,5.8,-,N/A,,Clear,360,2013-10-12 18:35:00
1:55 PM,64.8,27.7,25,30.19,10.0,NW,6.9,-,N/A,,Clear,320,2013-10-12 18:55:00
2:15 PM,66.2,27.0,23,30.19,10.0,NW,3.5,-,N/A,,Clear,310,2013-10-12 19:15:00
2:35 PM,66.6,26.4,22,30.18,10.0,Calm,Calm,-,N/A,,Clear,0,2013-10-12 19:35:00
2:55 PM,67.6,26.1,21,30.18,10.0,WSW,4.6,-,N/A,,Clear,240,2013-10-12 19:55:00
3:15 PM,67.5,25.7,21,30.18,10.0,North,6.9,-,N/A,,Clear,350,2013-10-12 20:15:00
3:35 PM,67.3,25.3,21,30.18,10.0,WNW,4.6,-,N/A,,Clear,290,2013-10-12 20:35:00
3:55 PM,67.5,25.3,20,30.18,10.0,Calm,Calm,-,N/A,,Clear,0,2013-10-12 20:55:00
4:15 PM,68.0,25.9,21,30.18,10.0,NW,3.5,-,N/A,,Clear,320,2013-10-12 21:15:00
4:35 PM,68.0,25.2,20,30.18,10.0,NNW,5.8,-,N/A,,Clear,330,2013-10-12 21:35:00
4:55 PM,68.2,26.2,21,30.18,10.0,NNW,5.8,-,N/A,,Clear,330,2013-10-12 21:55:00
5:15 PM,67.6,24.4,20,30.18,10.0,NNW,3.5,-,N/A,,Clear,340,2013-10-12 22:15:00
5:35 PM,67.1,24.8,20,30.18,10.0,NNW,4.6,-,N/A,,Clear,330,2013-10-12 22:35:00
5:55 PM,66.4,26.4,22,30.18,10.0,NNW,4.6,-,N/A,,Clear,330,2013-10-12 22:55:00
6:15 PM,65.3,27.9,24,30.18,10.0,NW,3.5,-,N/A,,Clear,320,2013-10-12 23:15:00
6:35 PM,63.1,30.0,29,30.18,10.0,Calm,Calm,-,N/A,,Clear,0,2013-10-12 23:35:00
6:55 PM,61.3,31.5,32,30.18,10.0,Calm,Calm,-,N/A,,Clear,0,2013-10-12 23:55:00
7:15 PM,55.6,36.9,49,30.19,2.5,Calm,Calm,-,N/A,,Haze,0,2013-10-13 00:15:00
7:35 PM,52.7,37.4,56,30.19,10.0,Calm,Calm,-,N/A,,Clear,0,2013-10-13 00:35:00
7:55 PM,51.4,37.6,59,30.20,10.0,Calm,Calm,-,N/A,,Clear,0,2013-10-13 00:55:00
8:15 PM,50.2,39.0,66,30.21,10.0,Calm,Calm,-,N/A,,Clear,0,2013-10-13 01:15:00
8:35 PM,49.3,37.8,65,30.22,10.0,Calm,Calm,-,N/A,,Clear,0,2013-10-13 01:35:00
8:55 PM,47.5,37.8,69,30.22,10.0,Calm,Calm,-,N/A,,Clear,0,2013-10-13 01:55:00
9:15 PM,46.6,38.3,73,30.23,10.0,Calm,Calm,-,N/A,,Clear,0,2013-10-13 02:15:00
9:35 PM,46.9,36.9,68,30.24,10.0,Calm,Calm,-,N/A,,Clear,0,2013-10-13 02:35:00
9:55 PM,45.5,37.0,72,30.25,7.0,Calm,Calm,-,N/A,,Clear,0,2013-10-13 02:55:00
10:15 PM,45.0,36.5,72,30.25,10.0,Calm,Calm,-,N/A,,Clear,0,2013-10-13 03:15:00
10:35 PM,45.5,37.4,73,30.26,10.0,Calm,Calm,-,N/A,,Clear,0,2013-10-13 03:35:00
10:55 PM,44.4,36.9,75,30.27,10.0,Calm,Calm,-,N/A,,Clear,0,2013-10-13 03:55:00
11:15 PM,43.2,36.7,78,30.27,10.0,Calm,Calm,-,N/A,,Clear,0,2013-10-13 04:15:00
11:35 PM,43.2,37.0,79,30.28,10.0,Calm,Calm,-,N/A,,Clear,0,2013-10-13 04:35:00
11:55 PM,43.9,37.6,78,30.29,10.0,Calm,Calm,-,N/A,,Scattered Clouds,0,2013-10-13 04:55:00